レモン彗星

C/2022 T1 ( Lemmon )

English version
Home page
Updated on May 2, 2025

---------------------------------------------------------------------

・ プロフィール

発見日 2022年10月3日
発見光度 21.2等
発見者 Mt. Lemmon Survey

・ 写真集

・ 軌道要素

Epoch 2024 Mar. 31.0 TT = JDT 2460400.5
T 2024 Feb. 17.46665 TT                                 Rudenko
q   3.4449045            (2000.0)            P               Q
z  +0.0000081      Peri.  324.30797     -0.89480078     +0.31005531
 +/-0.0000039      Node   236.91856     -0.26553082     -0.94801613
e   0.9999720      Incl.   22.54401     -0.35892193     -0.07163181
>From 409 observations 2022 Oct. 3-2024 Mar. 18, mean residual 0".5.

・ 星図

・ 光度変化

        m1 = 9.0 + 5 logΔ + 10.0 log r(t + 100)

---------------------------------------------------------------------

軌道要素はM.P.E.C. 2024-F34に掲載されたものです。
星図はステラナビゲータ Ver.10 (アストロアーツ) で作成したものです。
光度グラフはComet for Windowsで作成したものです。

---------------------------------------------------------------------

Copyright(C) Seiichi Yoshida (comet@aerith.net). All rights reserved.